TimeCST,TemperatureF,Dew PointF,Humidity,Sea Level PressureIn,VisibilityMPH,Wind Direction,Wind SpeedMPH,Gust SpeedMPH,PrecipitationIn,Events,Conditions,WindDirDegrees,DateUTC
12:13 AM,-9999,-9999,N/A,30.24,10.0,NW,9.2,-,N/A,,Clear,310,2013-01-17 06:13:00
12:32 AM,-9999,-9999,N/A,30.24,10.0,NW,8.1,-,N/A,,Clear,310,2013-01-17 06:32:00
12:52 AM,-9999,-9999,N/A,30.23,10.0,NW,9.2,-,N/A,,Clear,320,2013-01-17 06:52:00
1:12 AM,-9999,-9999,N/A,30.24,10.0,NW,3.5,-,N/A,,Clear,320,2013-01-17 07:12:00
1:32 AM,-9999,-9999,N/A,30.26,10.0,Calm,Calm,-,N/A,,Clear,0,2013-01-17 07:32:00
1:53 AM,-9999,-9999,N/A,30.28,10.0,NW,6.9,-,N/A,,Clear,320,2013-01-17 07:53:00
2:12 AM,-9999,-9999,N/A,30.29,10.0,NW,6.9,-,N/A,,Clear,320,2013-01-17 08:12:00
2:32 AM,-9999,-9999,N/A,30.30,10.0,NW,5.8,9.2,N/A,,Clear,310,2013-01-17 08:32:00
2:53 AM,-9999,-9999,N/A,30.30,10.0,WNW,6.9,-,N/A,,Clear,300,2013-01-17 08:53:00
3:12 AM,-9999,-9999,N/A,30.31,10.0,West,8.1,-,N/A,,Clear,280,2013-01-17 09:12:00
3:32 AM,-9999,-9999,N/A,30.32,10.0,West,8.1,-,N/A,,Clear,270,2013-01-17 09:32:00
3:53 AM,-9999,-9999,N/A,30.31,10.0,West,6.9,-,N/A,,Clear,270,2013-01-17 09:53:00
4:12 AM,-9999,-9999,N/A,30.31,10.0,West,8.1,-,N/A,,Mostly Cloudy,280,2013-01-17 10:12:00
4:32 AM,-9999,-9999,N/A,30.31,10.0,West,5.8,-,N/A,,Overcast,270,2013-01-17 10:32:00
5:12 AM,6.8,-2.2,67,30.33,10.0,Calm,Calm,-,N/A,,Overcast,0,2013-01-17 11:12:00
5:32 AM,6.8,-9999,N/A,30.32,10.0,Calm,Calm,-,N/A,,Overcast,0,2013-01-17 11:32:00
5:53 AM,8.6,-5.8,52,30.32,10.0,West,5.8,-,N/A,,Overcast,260,2013-01-17 11:53:00
6:12 AM,8.6,-5.8,52,30.33,10.0,West,9.2,-,N/A,,Overcast,260,2013-01-17 12:12:00
6:32 AM,8.6,-5.8,52,30.34,10.0,West,3.5,-,N/A,,Overcast,280,2013-01-17 12:32:00
6:53 AM,-9999,-9999,N/A,30.33,10.0,Calm,Calm,-,N/A,,Overcast,0,2013-01-17 12:53:00
7:12 AM,-9999,-9999,N/A,30.33,10.0,Calm,Calm,-,N/A,,Overcast,0,2013-01-17 13:12:00
7:32 AM,-9999,-9999,N/A,30.31,10.0,Calm,Calm,-,N/A,,Overcast,0,2013-01-17 13:32:00
7:53 AM,-9999,-9999,N/A,30.31,10.0,Calm,Calm,-,N/A,,Overcast,0,2013-01-17 13:53:00
8:13 AM,10.4,-2.2,57,30.32,10.0,Calm,Calm,-,N/A,,Unknown,0,2013-01-17 14:13:00
8:32 AM,12.2,-2.2,53,30.32,10.0,Calm,Calm,-,N/A,,Overcast,0,2013-01-17 14:32:00
8:52 AM,12.2,-0.4,57,30.32,10.0,Calm,Calm,-,N/A,,Overcast,0,2013-01-17 14:52:00
9:13 AM,12.2,1.4,62,30.33,10.0,SSW,5.8,-,N/A,,Scattered Clouds,210,2013-01-17 15:13:00
9:32 AM,14.0,1.4,57,30.34,10.0,Calm,Calm,-,N/A,,Mostly Cloudy,0,2013-01-17 15:32:00
9:52 AM,15.8,3.2,58,30.36,10.0,SW,6.9,-,N/A,,Overcast,230,2013-01-17 15:52:00
10:13 AM,17.6,6.8,63,30.36,10.0,WSW,6.9,-,N/A,,Overcast,240,2013-01-17 16:13:00
10:32 AM,19.4,8.6,63,30.35,10.0,SW,10.4,-,N/A,,Overcast,230,2013-01-17 16:32:00
10:53 AM,23.0,12.2,63,30.35,10.0,WSW,10.4,-,N/A,,Unknown,250,2013-01-17 16:53:00
11:13 AM,24.8,15.8,69,30.36,-9999.0,West,6.9,-,N/A,,Unknown,260,2013-01-17 17:13:00
11:32 AM,24.8,17.6,74,30.35,10.0,West,13.8,-,N/A,,Mostly Cloudy,270,2013-01-17 17:32:00
11:53 AM,26.6,19.4,74,30.36,10.0,West,15.0,-,N/A,,Mostly Cloudy,280,2013-01-17 17:53:00
12:13 PM,28.4,21.2,74,30.35,10.0,WNW,12.7,17.3,N/A,,Overcast,300,2013-01-17 18:13:00
12:53 PM,28.4,21.2,74,30.34,10.0,NW,11.5,-,N/A,,Overcast,320,2013-01-17 18:53:00
1:13 PM,28.4,23.0,80,30.34,10.0,NW,12.7,-,N/A,,Overcast,320,2013-01-17 19:13:00
1:32 PM,28.4,23.0,80,30.34,10.0,NNW,11.5,-,N/A,,Overcast,330,2013-01-17 19:32:00
1:53 PM,26.6,21.2,80,30.34,10.0,NW,12.7,-,N/A,,Overcast,320,2013-01-17 19:53:00
2:13 PM,26.6,21.2,80,30.33,10.0,NNW,9.2,-,N/A,,Overcast,330,2013-01-17 20:13:00
2:32 PM,26.6,21.2,80,30.33,10.0,NW,6.9,-,N/A,,Overcast,320,2013-01-17 20:32:00
2:53 PM,26.6,21.2,80,30.34,10.0,NNW,6.9,-,N/A,,Overcast,330,2013-01-17 20:53:00
3:13 PM,26.6,21.2,80,30.34,10.0,NNW,9.2,-,N/A,,Overcast,340,2013-01-17 21:13:00
3:32 PM,26.6,19.4,74,30.34,10.0,Calm,Calm,-,N/A,,Overcast,0,2013-01-17 21:32:00
3:53 PM,26.6,21.2,80,30.34,10.0,Calm,Calm,-,N/A,,Overcast,0,2013-01-17 21:53:00
4:13 PM,26.6,19.4,74,30.34,10.0,Calm,Calm,-,N/A,,Overcast,0,2013-01-17 22:13:00
4:32 PM,24.8,19.4,80,30.34,10.0,Calm,Calm,-,N/A,,Overcast,0,2013-01-17 22:32:00
4:52 PM,24.8,19.4,80,30.35,10.0,Calm,Calm,-,N/A,,Overcast,0,2013-01-17 22:52:00
5:13 PM,24.8,19.4,80,30.35,10.0,Calm,Calm,-,N/A,,Mostly Cloudy,0,2013-01-17 23:13:00
5:32 PM,24.8,19.4,80,30.35,10.0,Calm,Calm,-,N/A,,Overcast,0,2013-01-17 23:32:00
5:52 PM,24.8,19.4,80,30.35,10.0,Calm,Calm,-,N/A,,Overcast,0,2013-01-17 23:52:00
6:13 PM,23.0,19.4,86,30.35,10.0,Calm,Calm,-,N/A,,Scattered Clouds,0,2013-01-18 00:13:00
6:52 PM,23.0,19.4,86,30.33,10.0,Calm,Calm,-,N/A,,Scattered Clouds,0,2013-01-18 00:52:00
7:13 PM,23.0,19.4,86,30.34,10.0,Calm,Calm,-,N/A,,Mostly Cloudy,0,2013-01-18 01:13:00
7:32 PM,23.0,19.4,86,30.33,10.0,Calm,Calm,-,N/A,,Overcast,0,2013-01-18 01:32:00
7:53 PM,23.0,19.4,86,30.32,10.0,Calm,Calm,-,N/A,,Overcast,0,2013-01-18 01:53:00
8:13 PM,23.0,19.4,86,30.32,10.0,Calm,Calm,-,N/A,,Overcast,0,2013-01-18 02:13:00
8:53 PM,23.0,19.4,86,30.30,10.0,Calm,Calm,-,N/A,,Mostly Cloudy,0,2013-01-18 02:53:00
9:12 PM,23.0,19.4,86,30.29,10.0,Calm,Calm,-,N/A,,Mostly Cloudy,0,2013-01-18 03:12:00
9:32 PM,23.0,19.4,86,30.27,10.0,Calm,Calm,-,N/A,,Mostly Cloudy,0,2013-01-18 03:32:00
9:53 PM,23.0,19.4,86,30.25,10.0,Calm,Calm,-,N/A,,Overcast,0,2013-01-18 03:53:00
10:12 PM,24.8,19.4,80,30.25,10.0,Calm,Calm,-,N/A,,Mostly Cloudy,0,2013-01-18 04:12:00
10:32 PM,24.8,19.4,80,30.25,10.0,Calm,Calm,-,N/A,,Overcast,0,2013-01-18 04:32:00
10:53 PM,24.8,21.2,86,30.23,10.0,SE,3.5,-,N/A,,Overcast,130,2013-01-18 04:53:00
11:12 PM,24.8,21.2,86,30.22,10.0,Calm,Calm,-,N/A,,Mostly Cloudy,0,2013-01-18 05:12:00
11:32 PM,24.8,21.2,86,30.21,10.0,Calm,Calm,-,N/A,,Scattered Clouds,0,2013-01-18 05:32:00
11:53 PM,24.8,21.2,86,30.19,10.0,SE,4.6,-,N/A,,Scattered Clouds,130,2013-01-18 05:53:00